| time (UTC) | temp F | wind direction | speed knots | gust knots | rain 1hr in | rain 24hr in | rain mn in | humidity % | barometer mb |
| 20260502194807 | 57 | 337 | 0.9 | 5.2 | 0.00 | 0.00 | 0.00 | 47 | 1014.5 |
| 20260502194304 | 55 | 297 | 1.7 | 4.3 | 0.00 | 0.00 | 0.00 | 46 | 1014.5 |
| 20260502193800 | 55 | 274 | 4.3 | 11.3 | 0.00 | 0.00 | 0.00 | 43 | 1014.4 |
| 20260502193257 | 55 | 246 | 7.8 | 12.2 | 0.00 | 0.00 | 0.00 | 43 | 1014.5 |
| 20260502192752 | 55 | 217 | 2.6 | 8.7 | 0.00 | 0.00 | 0.00 | 43 | 1014.4 |
| 20260502192250 | 55 | 270 | 1.7 | 3.5 | 0.00 | 0.00 | 0.00 | 46 | 1014.5 |
| 20260502191746 | 56 | 246 | 4.3 | 16.5 | 0.00 | 0.00 | 0.00 | 46 | 1014.6 |
| 20260502191244 | 56 | 331 | 0.9 | 5.2 | 0.00 | 0.00 | 0.00 | 46 | 1014.7 |
| 20260502190741 | 56 | 290 | 4.3 | 5.2 | 0.00 | 0.00 | 0.00 | 42 | 1014.7 |
| 20260502190238 | 56 | 234 | 11.3 | 12.2 | 0.00 | 0.00 | 0.00 | 42 | 1014.7 |
| 20260502185733 | 58 | 221 | 5.2 | 8.7 | 0.00 | 0.00 | 0.00 | 47 | 1014.5 |
| 20260502185229 | 59 | 295 | 4.3 | 6.1 | 0.00 | 0.00 | 0.00 | 45 | 1014.8 |
| 20260502184726 | 58 | 334 | 0.9 | 4.3 | 0.00 | 0.00 | 0.00 | 47 | 1014.9 |
| 20260502184222 | 56 | 304 | 3.5 | 6.1 | 0.00 | 0.00 | 0.00 | 41 | 1014.8 |
| 20260502183719 | 57 | 276 | 0.9 | 8.7 | 0.00 | 0.00 | 0.00 | 42 | 1014.8 |
| 20260502183214 | 54 | 275 | 3.5 | 21.7 | 0.00 | 0.00 | 0.00 | 43 | 1014.9 |
| 20260502182710 | 59 | 270 | 1.7 | 7.0 | 0.00 | 0.00 | 0.00 | 50 | 1014.7 |
| 20260502182205 | 57 | 236 | 9.6 | 13.9 | 0.00 | 0.00 | 0.00 | 44 | 1015.0 |
| 20260502181703 | 57 | 257 | 7.0 | 10.4 | 0.00 | 0.00 | 0.00 | 44 | 1015.2 |
| 20260502181202 | 56 | 288 | 0.0 | 3.5 | 0.00 | 0.00 | 0.00 | 54 | 1015.3 |
| 20260502180659 | 55 | 289 | 5.2 | 7.0 | 0.00 | 0.00 | 0.00 | 46 | 1015.1 |
| 20260502180156 | 53 | 273 | 2.6 | 7.8 | 0.00 | 0.00 | 0.00 | 46 | 1015.3 |
| 20260502170120 | 55 | 338 | 1.7 | 6.1 | 0.00 | 0.00 | 0.00 | 50 | 1015.4 |
| 20260502164107 | 53 | 319 | 2.6 | 5.2 | 0.00 | 0.00 | 0.00 | 52 | 1015.8 |
| 20260502163603 | 53 | 270 | 0.9 | 4.3 | 0.00 | 0.00 | 0.00 | 53 | 1015.6 |
| 20260502163059 | 54 | 289 | 5.2 | 7.0 | 0.00 | 0.00 | 0.00 | 54 | 1015.7 |
| 20260502162556 | 53 | 315 | 5.2 | 12.2 | 0.00 | 0.00 | 0.00 | 53 | 1015.8 |
| 20260502162054 | 53 | 259 | 9.6 | 11.3 | 0.00 | 0.00 | 0.00 | 54 | 1015.9 |
| 20260502161550 | 55 | 279 | 1.7 | 7.0 | 0.00 | 0.00 | 0.00 | 52 | 1015.8 |
| 20260502161048 | 56 | 261 | 2.6 | 7.0 | 0.00 | 0.00 | 0.00 | 49 | 1015.8 |
| 20260502160546 | 54 | 307 | 1.7 | 5.2 | 0.00 | 0.00 | 0.00 | 54 | 1016.0 |
| 20260502151959 | 54 | 115 | 1.7 | 5.2 | 0.00 | 0.00 | 0.00 | 57 | 1016.1 |
| 20260502151455 | 55 | 286 | 1.7 | 2.6 | 0.00 | 0.00 | 0.00 | 58 | 1015.8 |
| 20260502150953 | 55 | 253 | 3.5 | 4.3 | 0.00 | 0.00 | 0.00 | 52 | 1016.0 |
| 20260502150450 | 55 | 82 | 2.6 | 3.5 | 0.00 | 0.00 | 0.00 | 60 | 1016.0 |
| 20260502130336 | 46 | 108 | 2.6 | 2.6 | 0.00 | 0.00 | 0.00 | 95 | 1016.3 |
| 20260502123318 | 41 | 90 | 2.6 | 3.5 | 0.00 | 0.00 | 0.00 | 99 | 1016.1 |
| 20260502122815 | 41 | 61 | 3.5 | 4.3 | 0.00 | 0.00 | 0.00 | 99 | 1016.1 |
| 20260502122310 | 41 | 191 | 0.0 | 1.7 | 0.00 | 0.00 | 0.00 | 99 | 1016.1 |
| 20260502121809 | 41 | 90 | 0.0 | 1.7 | 0.00 | 0.00 | 0.00 | 99 | 1016.1 |
| 20260502121306 | 39 | 105 | 2.6 | 2.6 | 0.00 | 0.00 | 0.00 | 99 | 1016.1 |
| 20260502120803 | 39 | 103 | 0.0 | 2.6 | 0.00 | 0.00 | 0.00 | 99 | 1016.2 |
| 20260502120300 | 38 | 190 | 0.0 | 1.7 | 0.00 | 0.00 | 0.00 | 99 | 1016.2 |
| 20260502115757 | 35 | 262 | 0.0 | 0.9 | 0.00 | 0.00 | 0.00 | 99 | 1016.2 |
| 20260502115254 | 35 | 90 | 0.0 | 2.6 | 0.00 | 0.00 | 0.00 | 99 | 1016.1 |
| 20260502114750 | 35 | 110 | 0.0 | 2.6 | 0.00 | 0.00 | 0.00 | 99 | 1016.3 |
| 20260502114247 | 34 | 162 | 0.9 | 2.6 | 0.00 | 0.00 | 0.00 | 99 | 1016.2 |
| 20260502113744 | 34 | 82 | 0.0 | 2.6 | 0.00 | 0.00 | 0.00 | 99 | 1016.3 |
| 20260502113242 | 34 | 109 | 0.0 | 1.7 | 0.00 | 0.00 | 0.00 | 99 | 1016.1 |
| 20260502112740 | 34 | 82 | 0.9 | 2.6 | 0.00 | 0.00 | 0.00 | 99 | 1016.1 |
| 20260502112237 | 33 | 0 | 0.0 | 2.6 | 0.00 | 0.00 | 0.00 | 99 | 1016.0 |
| 20260502111734 | 33 | 16 | 0.0 | 1.7 | 0.00 | 0.00 | 0.00 | 99 | 1016.0 |
| 20260502111232 | 33 | 194 | 0.0 | 1.7 | 0.00 | 0.00 | 0.00 | 99 | 1016.0 |
| 20260502110729 | 33 | 206 | 0.9 | 1.7 | 0.00 | 0.00 | 0.00 | 99 | 1016.0 |
| 20260502110226 | 33 | 245 | 0.0 | 1.7 | 0.00 | 0.00 | 0.00 | 99 | 1016.0 |
| 20260502105724 | 32 | 277 | 0.0 | 1.7 | 0.00 | 0.00 | 0.00 | 99 | 1016.0 |
| 20260502105220 | 32 | 168 | 0.0 | 1.7 | 0.00 | 0.00 | 0.00 | 99 | 1016.0 |
| 20260502104718 | 32 | 117 | 0.9 | 2.6 | 0.00 | 0.00 | 0.00 | 99 | 1016.1 |
| 20260502104216 | 32 | 206 | 0.9 | 0.9 | 0.00 | 0.00 | 0.00 | 99 | 1016.0 |
| 20260502103713 | 32 | 294 | 0.0 | 2.6 | 0.00 | 0.00 | 0.00 | 99 | 1016.0 |
| 20260502103211 | 32 | 90 | 0.0 | 2.6 | 0.00 | 0.00 | 0.00 | 99 | 1016.1 |
| 20260502102707 | 32 | 180 | 0.0 | 1.7 | 0.00 | 0.00 | 0.00 | 99 | 1016.2 |
| 20260502102204 | 32 | 213 | 0.0 | 2.6 | 0.00 | 0.00 | 0.00 | 99 | 1016.3 |
| 20260502101702 | 32 | 166 | 0.0 | 1.7 | 0.00 | 0.00 | 0.00 | 99 | 1016.2 |
| 20260502101200 | 32 | 127 | 1.7 | 1.7 | 0.00 | 0.00 | 0.00 | 99 | 1016.2 |
| 20260502100658 | 32 | 180 | 0.0 | 2.6 | 0.00 | 0.00 | 0.00 | 99 | 1016.1 |
| 20260502100156 | 32 | 209 | 0.9 | 1.7 | 0.00 | 0.00 | 0.00 | 99 | 1016.2 |
| 20260502091130 | 33 | 112 | 0.0 | 1.7 | 0.00 | 0.00 | 0.00 | 99 | 1015.9 |
| 20260502090627 | 33 | 128 | 0.0 | 2.6 | 0.00 | 0.00 | 0.00 | 99 | 1016.1 |
| 20260502090124 | 33 | 126 | 0.9 | 2.6 | 0.00 | 0.00 | 0.00 | 99 | 1016.1 |
| 20260502071522 | 33 | 195 | 0.0 | 1.7 | 0.00 | 0.00 | 0.00 | 99 | 1015.9 |
| 20260502071020 | 34 | 203 | 0.0 | 1.7 | 0.00 | 0.00 | 0.00 | 99 | 1015.7 |
| 20260502070518 | 34 | 131 | 0.0 | 2.6 | 0.00 | 0.00 | 0.00 | 99 | 1015.8 |
| 20260502070016 | 34 | 123 | 0.0 | 2.6 | 0.00 | 0.00 | 0.00 | 99 | 1015.7 |
| 20260502065514 | 34 | 145 | 0.9 | 2.6 | 0.00 | 0.00 | 0.00 | 99 | 1015.8 |
| 20260502065011 | 34 | 180 | 0.0 | 2.6 | 0.00 | 0.00 | 0.00 | 99 | 1015.9 |
| 20260502064510 | 34 | 147 | 0.0 | 1.7 | 0.00 | 0.00 | 0.00 | 99 | 1016.0 |
| 20260502064006 | 33 | 90 | 0.9 | 2.6 | 0.00 | 0.00 | 0.00 | 99 | 1016.1 |
| 20260502063504 | 34 | 188 | 1.7 | 1.7 | 0.00 | 0.00 | 0.00 | 99 | 1016.1 |
| 20260502063002 | 34 | 120 | 0.0 | 2.6 | 0.00 | 0.00 | 0.00 | 99 | 1016.1 |
| 20260502062458 | 34 | 115 | 0.0 | 1.7 | 0.00 | 0.00 | 0.00 | 99 | 1016.3 |
| 20260502061957 | 35 | 233 | 0.0 | 2.6 | 0.00 | 0.00 | 0.00 | 99 | 1016.2 |
| 20260502061454 | 35 | 131 | 0.9 | 1.7 | 0.00 | 0.00 | 0.00 | 99 | 1016.2 |
| 20260502060950 | 35 | 254 | 0.0 | 1.7 | 0.00 | 0.00 | 0.00 | 99 | 1016.2 |
| 20260502060446 | 35 | 227 | 0.0 | 2.6 | 0.00 | 0.00 | 0.00 | 99 | 1016.5 |
| 20260502055943 | 35 | 270 | 0.9 | 1.7 | 0.00 | 0.00 | 0.00 | 99 | 1016.5 |
| 20260502055440 | 35 | 195 | 1.7 | 2.6 | 0.00 | 0.00 | 0.00 | 99 | 1016.5 |
| 20260502054935 | 35 | 167 | 0.0 | 2.6 | 0.00 | 0.00 | 0.00 | 99 | 1016.2 |
| 20260502054432 | 35 | 180 | 0.0 | 2.6 | 0.00 | 0.00 | 0.00 | 99 | 1016.3 |
| 20260502053929 | 35 | 139 | 1.7 | 2.6 | 0.00 | 0.00 | 0.00 | 99 | 1016.4 |
| 20260502053426 | 35 | 157 | 0.0 | 2.6 | 0.00 | 0.00 | 0.00 | 99 | 1016.4 |
| 20260502052924 | 35 | 170 | 0.0 | 1.7 | 0.00 | 0.00 | 0.00 | 99 | 1016.7 |
| 20260502052422 | 35 | 152 | 1.7 | 2.6 | 0.00 | 0.00 | 0.00 | 99 | 1016.5 |
| 20260502051920 | 35 | 180 | 0.0 | 2.6 | 0.00 | 0.00 | 0.00 | 99 | 1016.4 |
| 20260502051418 | 35 | 163 | 0.0 | 1.7 | 0.00 | 0.00 | 0.00 | 99 | 1016.3 |
| 20260502050914 | 35 | 168 | 0.0 | 1.7 | 0.00 | 0.00 | 0.00 | 99 | 1016.3 |
| 20260502050411 | 35 | 157 | 0.0 | 2.6 | 0.00 | 0.00 | 0.00 | 99 | 1016.5 |
| 20260502045908 | 35 | 195 | 0.0 | 1.7 | 0.00 | 0.00 | 0.00 | 99 | 1016.3 |
| 20260502045405 | 36 | 123 | 0.9 | 1.7 | 0.00 | 0.00 | 0.00 | 98 | 1016.5 |
| 20260502044902 | 36 | 176 | 1.7 | 2.6 | 0.00 | 0.00 | 0.00 | 98 | 1016.6 |
| 20260502044357 | 36 | 206 | 1.7 | 2.6 | 0.00 | 0.00 | 0.00 | 98 | 1016.7 |
| 20260502043855 | 37 | 132 | 1.7 | 2.6 | 0.00 | 0.00 | 0.00 | 98 | 1016.6 |
| 20260502043353 | 36 | 144 | 2.6 | 2.6 | 0.00 | 0.00 | 0.00 | 98 | 1016.5 |
| 20260502042852 | 37 | 165 | 1.7 | 2.6 | 0.00 | 0.00 | 0.00 | 98 | 1016.5 |
| 20260502042350 | 37 | 180 | 0.0 | 3.5 | 0.00 | 0.00 | 0.00 | 98 | 1016.4 |
| 20260502041847 | 37 | 143 | 0.0 | 2.6 | 0.00 | 0.00 | 0.00 | 98 | 1016.6 |
| 20260502041344 | 37 | 166 | 0.0 | 1.7 | 0.00 | 0.00 | 0.00 | 98 | 1016.4 |
| 20260502040841 | 37 | 162 | 0.9 | 2.6 | 0.00 | 0.00 | 0.00 | 98 | 1016.5 |
| 20260502040338 | 37 | 138 | 2.6 | 2.6 | 0.00 | 0.00 | 0.00 | 98 | 1016.5 |
| 20260502035834 | 37 | 157 | 0.9 | 2.6 | 0.00 | 0.00 | 0.00 | 97 | 1016.5 |
| 20260502035331 | 37 | 180 | 0.0 | 1.7 | 0.00 | 0.00 | 0.00 | 97 | 1016.2 |
| 20260502034828 | 37 | 154 | 1.7 | 2.6 | 0.00 | 0.00 | 0.00 | 97 | 1016.4 |
| 20260502034326 | 37 | 138 | 0.0 | 2.6 | 0.00 | 0.00 | 0.00 | 97 | 1016.4 |
| 20260502033824 | 38 | 146 | 0.0 | 2.6 | 0.00 | 0.00 | 0.00 | 96 | 1016.4 |
| 20260502033322 | 38 | 97 | 0.9 | 2.6 | 0.00 | 0.00 | 0.00 | 96 | 1016.4 |
| 20260502032818 | 38 | 174 | 0.9 | 1.7 | 0.00 | 0.00 | 0.00 | 96 | 1016.3 |
| 20260502032314 | 38 | 196 | 1.7 | 2.6 | 0.00 | 0.00 | 0.00 | 96 | 1016.3 |
| 20260502031812 | 38 | 195 | 0.0 | 2.6 | 0.00 | 0.00 | 0.00 | 96 | 1016.4 |
| 20260502031310 | 38 | 188 | 0.0 | 1.7 | 0.00 | 0.00 | 0.00 | 95 | 1016.4 |
| 20260502030809 | 39 | 144 | 0.0 | 1.7 | 0.00 | 0.00 | 0.00 | 94 | 1016.4 |
| 20260502030306 | 39 | 174 | 0.9 | 2.6 | 0.00 | 0.00 | 0.00 | 94 | 1016.5 |
| 20260502025803 | 39 | 180 | 1.7 | 2.6 | 0.00 | 0.00 | 0.00 | 94 | 1016.6 |
| 20260502025301 | 40 | 197 | 0.0 | 2.6 | 0.00 | 0.00 | 0.00 | 94 | 1016.4 |
| 20260502024759 | 40 | 151 | 1.7 | 1.7 | 0.00 | 0.00 | 0.00 | 94 | 1016.5 |
| 20260502024256 | 40 | 201 | 0.0 | 2.6 | 0.00 | 0.00 | 0.00 | 93 | 1016.5 |
| 20260502023754 | 40 | 129 | 0.0 | 2.6 | 0.00 | 0.00 | 0.00 | 93 | 1016.3 |
| 20260502023252 | 40 | 180 | 0.9 | 1.7 | 0.00 | 0.00 | 0.00 | 92 | 1016.2 |
| 20260502022749 | 41 | 225 | 0.0 | 1.7 | 0.00 | 0.00 | 0.00 | 91 | 1016.1 |
| 20260502022245 | 41 | 162 | 1.7 | 2.6 | 0.00 | 0.00 | 0.00 | 91 | 1016.1 |
| 20260502021742 | 41 | 154 | 0.0 | 2.6 | 0.00 | 0.00 | 0.00 | 90 | 1016.0 |
| 20260502021240 | 42 | 185 | 0.0 | 2.6 | 0.00 | 0.00 | 0.00 | 89 | 1015.7 |
| 20260502020736 | 41 | 135 | 2.6 | 2.6 | 0.00 | 0.00 | 0.00 | 88 | 1015.7 |
| 20260502020234 | 42 | 112 | 1.7 | 2.6 | 0.00 | 0.00 | 0.00 | 87 | 1015.7 |
| 20260502015732 | 43 | 220 | 0.0 | 1.7 | 0.00 | 0.00 | 0.00 | 86 | 1015.5 |
| 20260502015228 | 42 | 214 | 0.0 | 2.6 | 0.00 | 0.00 | 0.00 | 88 | 1015.5 |
| 20260502014726 | 43 | 253 | 0.0 | 1.7 | 0.00 | 0.00 | 0.00 | 85 | 1015.4 |
| 20260502014222 | 44 | 239 | 1.7 | 2.6 | 0.00 | 0.00 | 0.00 | 82 | 1015.5 |
| 20260502013718 | 44 | 228 | 1.7 | 3.5 | 0.00 | 0.00 | 0.00 | 82 | 1015.3 |
| 20260502013214 | 44 | 200 | 0.0 | 2.6 | 0.00 | 0.00 | 0.00 | 82 | 1015.3 |
| 20260502012711 | 46 | 263 | 0.0 | 1.7 | 0.00 | 0.00 | 0.00 | 78 | 1015.4 |
| 20260502012209 | 46 | 257 | 0.0 | 2.6 | 0.00 | 0.00 | 0.00 | 76 | 1015.2 |
| 20260502011705 | 46 | 270 | 0.0 | 2.6 | 0.00 | 0.00 | 0.00 | 75 | 1015.2 |
| 20260502011201 | 47 | 175 | 0.0 | 1.7 | 0.00 | 0.00 | 0.00 | 73 | 1015.0 |
| 20260502010700 | 48 | 6 | 0.0 | 2.6 | 0.00 | 0.00 | 0.00 | 72 | 1015.1 |
| 20260502010155 | 48 | 60 | 0.0 | 3.5 | 0.00 | 0.00 | 0.00 | 71 | 1014.8 |
| 20260502005653 | 48 | 200 | 0.9 | 0.9 | 0.00 | 0.00 | 0.00 | 73 | 1015.0 |
| 20260502005150 | 48 | 270 | 0.0 | 6.1 | 0.00 | 0.00 | 0.00 | 71 | 1014.9 |
| 20260502004646 | 49 | 236 | 2.6 | 5.2 | 0.00 | 0.00 | 0.00 | 70 | 1014.8 |
| 20260502004143 | 49 | 264 | 0.0 | 1.7 | 0.00 | 0.00 | 0.00 | 72 | 1014.5 |
| 20260502003641 | 49 | 10 | 1.7 | 3.5 | 0.00 | 0.00 | 0.00 | 71 | 1014.4 |
| 20260502003138 | 49 | 5 | 1.7 | 3.5 | 0.00 | 0.00 | 0.00 | 71 | 1014.7 |
| 20260502002634 | 50 | 0 | 0.9 | 2.6 | 0.00 | 0.00 | 0.00 | 72 | 1014.3 |
| 20260502002131 | 50 | 262 | 0.0 | 1.7 | 0.00 | 0.00 | 0.00 | 70 | 1014.3 |
| 20260502001629 | 50 | 273 | 2.6 | 3.5 | 0.00 | 0.00 | 0.00 | 69 | 1014.2 |
| 20260502001126 | 51 | 24 | 2.6 | 7.8 | 0.00 | 0.00 | 0.00 | 69 | 1014.2 |
| 20260502000624 | 51 | 273 | 3.5 | 6.1 | 0.00 | 0.00 | 0.00 | 67 | 1014.0 |
| 20260502000121 | 51 | 290 | 3.5 | 6.1 | 0.00 | 0.00 | 0.00 | 68 | 1013.7 |
| 20260501235617 | 52 | 320 | 1.7 | 2.6 | 0.00 | 0.00 | 0.00 | 70 | 1013.5 |
| 20260501235114 | 52 | 243 | 2.6 | 4.3 | 0.00 | 0.00 | 0.00 | 69 | 1013.1 |
| 20260501234609 | 52 | 285 | 7.0 | 7.0 | 0.00 | 0.00 | 0.00 | 68 | 1013.4 |
| 20260501234107 | 53 | 301 | 3.5 | 4.3 | 0.00 | 0.00 | 0.00 | 70 | 1013.0 |
| 20260501233605 | 53 | 286 | 0.9 | 2.6 | 0.00 | 0.00 | 0.00 | 71 | 1012.9 |
| 20260501233102 | 53 | 313 | 2.6 | 2.6 | 0.00 | 0.00 | 0.00 | 70 | 1012.7 |
| 20260501232557 | 54 | 246 | 5.2 | 5.2 | 0.00 | 0.00 | 0.00 | 72 | 1012.5 |
| 20260501232055 | 54 | 0 | 0.0 | 4.3 | 0.00 | 0.00 | 0.00 | 71 | 1012.8 |
| 20260501231553 | 55 | 270 | 0.0 | 3.5 | 0.00 | 0.00 | 0.00 | 70 | 1012.7 |
| 20260501231051 | 54 | 71 | 0.0 | 4.3 | 0.00 | 0.00 | 0.00 | 69 | 1012.7 |
| 20260501230549 | 54 | 25 | 2.6 | 7.0 | 0.00 | 0.00 | 0.00 | 70 | 1012.7 |
| 20260501230047 | 54 | 226 | 5.2 | 5.2 | 0.00 | 0.00 | 0.00 | 71 | 1012.7 |
| 20260501225544 | 54 | 270 | 1.7 | 2.6 | 0.00 | 0.00 | 0.00 | 72 | 1012.4 |
| 20260501225040 | 54 | 275 | 1.7 | 3.5 | 0.00 | 0.00 | 0.00 | 72 | 1012.6 |
| 20260501224538 | 54 | 274 | 2.6 | 6.1 | 0.00 | 0.00 | 0.00 | 70 | 1012.3 |
| 20260501224035 | 54 | 263 | 0.0 | 7.0 | 0.00 | 0.00 | 0.00 | 72 | 1012.7 |
| 20260501223531 | 55 | 305 | 1.7 | 3.5 | 0.00 | 0.00 | 0.00 | 75 | 1012.6 |
| 20260501223027 | 55 | 331 | 1.7 | 3.5 | 0.00 | 0.00 | 0.00 | 74 | 1012.4 |
| 20260501222524 | 55 | 270 | 0.0 | 3.5 | 0.00 | 0.00 | 0.00 | 75 | 1012.5 |
| 20260501222021 | 54 | 239 | 3.5 | 9.6 | 0.00 | 0.00 | 0.00 | 74 | 1012.3 |
| 20260501221517 | 55 | 277 | 2.6 | 3.5 | 0.00 | 0.00 | 0.00 | 73 | 1012.4 |
| 20260501221015 | 55 | 243 | 3.5 | 3.5 | 0.00 | 0.00 | 0.00 | 72 | 1012.3 |
| 20260501220513 | 55 | 0 | 0.9 | 2.6 | 0.00 | 0.00 | 0.00 | 74 | 1012.5 |
| 20260501220009 | 56 | 235 | 3.5 | 6.1 | 0.00 | 0.00 | 0.00 | 72 | 1012.2 |
| 20260501215505 | 55 | 275 | 1.7 | 2.6 | 0.00 | 0.00 | 0.00 | 75 | 1012.3 |
| 20260501215001 | 54 | 270 | 0.0 | 2.6 | 0.00 | 0.00 | 0.00 | 74 | 1012.5 |
| 20260501214456 | 54 | 20 | 0.0 | 1.7 | 0.00 | 0.00 | 0.00 | 75 | 1012.5 |
| 20260501213952 | 54 | 251 | 0.9 | 2.6 | 0.00 | 0.00 | 0.00 | 74 | 1012.4 |
| 20260501213449 | 54 | 353 | 0.0 | 2.6 | 0.00 | 0.00 | 0.00 | 74 | 1012.3 |
| 20260501212944 | 53 | 280 | 1.7 | 3.5 | 0.00 | 0.00 | 0.00 | 73 | 1012.3 |
| 20260501212441 | 53 | 270 | 4.3 | 6.1 | 0.00 | 0.00 | 0.00 | 73 | 1012.3 |
| 20260501211938 | 54 | 6 | 2.6 | 2.6 | 0.00 | 0.00 | 0.00 | 73 | 1012.0 |
| 20260501211436 | 53 | 270 | 1.7 | 5.2 | 0.00 | 0.00 | 0.00 | 72 | 1012.1 |
| 20260501210933 | 54 | 304 | 2.6 | 3.5 | 0.00 | 0.00 | 0.00 | 70 | 1012.0 |
| 20260501210430 | 55 | 213 | 0.0 | 2.6 | 0.00 | 0.00 | 0.00 | 73 | 1011.8 |
| 20260501205926 | 55 | 248 | 5.2 | 7.8 | 0.00 | 0.00 | 0.00 | 70 | 1011.9 |
| 20260501205423 | 55 | 291 | 2.6 | 6.1 | 0.00 | 0.00 | 0.00 | 71 | 1011.9 |
| 20260501204920 | 55 | 277 | 0.0 | 3.5 | 0.00 | 0.00 | 0.00 | 73 | 1012.0 |
| 20260501204416 | 54 | 289 | 3.5 | 7.0 | 0.00 | 0.00 | 0.00 | 72 | 1011.8 |
| 20260501203912 | 54 | 265 | 1.7 | 7.0 | 0.00 | 0.00 | 0.00 | 73 | 1012.1 |
| 20260501203410 | 54 | 283 | 1.7 | 4.3 | 0.00 | 0.00 | 0.00 | 72 | 1012.2 |
| 20260501202907 | 55 | 298 | 2.6 | 9.6 | 0.00 | 0.00 | 0.00 | 73 | 1012.1 |
| 20260501202404 | 55 | 74 | 4.3 | 6.1 | 0.00 | 0.00 | 0.00 | 73 | 1012.2 |
| 20260501201900 | 55 | 264 | 5.2 | 6.1 | 0.00 | 0.00 | 0.00 | 73 | 1012.1 |
| 20260501201357 | 56 | 334 | 2.6 | 12.2 | 0.00 | 0.00 | 0.00 | 73 | 1012.1 |
| 20260501200854 | 57 | 349 | 3.5 | 5.2 | 0.00 | 0.00 | 0.00 | 73 | 1012.2 |
| 20260501200351 | 57 | 296 | 2.6 | 7.0 | 0.00 | 0.00 | 0.00 | 74 | 1012.0 |
| 20260501195849 | 58 | 308 | 7.0 | 7.0 | 0.00 | 0.00 | 0.00 | 74 | 1012.0 |
| 20260501195344 | 59 | 139 | 2.6 | 4.3 | 0.00 | 0.00 | 0.00 | 74 | 1011.8 |